Time,TemperatureF,DewpointF,PressureIn,WindDirection,WindDirectionDegrees,WindSpeedMPH,WindSpeedGustMPH,Humidity,HourlyPrecipIn,Conditions,Clouds,dailyrainin,SoftwareType,DateUTC
2013-09-13 00:01:00,68.0,47.0,29.35,WSW,246,0.0,0.0,47,0.00,,---,0.04,VWS V13.01,2013-09-13 04:01:00,
2013-09-13 00:02:00,68.0,47.0,29.35,WSW,246,0.0,0.0,47,0.00,,---,0.04,VWS V13.01,2013-09-13 04:02:00,
2013-09-13 00:03:00,68.0,47.0,29.35,WSW,246,0.0,0.0,47,0.00,,---,0.00,VWS V13.01,2013-09-13 04:03:00,
2013-09-13 00:08:00,68.0,47.0,29.35,WSW,246,0.0,0.0,47,0.00,,---,0.00,VWS V13.01,2013-09-13 04:08:00,
2013-09-13 00:13:00,68.0,47.6,29.35,WSW,246,0.0,0.0,48,0.00,,---,0.00,VWS V13.01,2013-09-13 04:13:00,
2013-09-13 00:18:00,68.0,47.6,29.35,WSW,255,0.0,0.0,48,0.00,,---,0.00,VWS V13.01,2013-09-13 04:18:00,
2013-09-13 00:23:00,68.0,47.6,29.35,WSW,255,0.0,0.0,48,0.00,,---,0.00,VWS V13.01,2013-09-13 04:23:00,
2013-09-13 00:28:00,68.0,47.6,29.35,WSW,255,0.0,0.0,48,0.00,,---,0.00,VWS V13.01,2013-09-13 04:28:00,
2013-09-13 00:34:00,68.0,47.6,29.35,WSW,242,0.0,0.0,48,0.00,,---,0.00,VWS V13.01,2013-09-13 04:34:00,
2013-09-13 00:39:00,68.0,47.6,29.35,WSW,242,0.0,0.0,48,0.00,,---,0.00,VWS V13.01,2013-09-13 04:39:00,
2013-09-13 00:44:00,67.8,48.0,29.35,WSW,242,0.0,0.0,49,0.00,,---,0.00,VWS V13.01,2013-09-13 04:44:00,
2013-09-13 00:49:00,67.8,48.0,29.35,WSW,242,0.0,0.0,49,0.00,,---,0.00,VWS V13.01,2013-09-13 04:49:00,
2013-09-13 00:54:00,67.8,48.0,29.35,WSW,242,0.0,0.0,49,0.00,,---,0.00,VWS V13.01,2013-09-13 04:54:00,
2013-09-13 00:59:00,67.6,47.8,29.35,WSW,242,0.0,0.0,49,0.00,,---,0.00,VWS V13.01,2013-09-13 04:59:00,
2013-09-13 01:04:00,67.6,47.8,29.35,WSW,242,0.0,0.0,49,0.00,,---,0.00,VWS V13.01,2013-09-13 05:04:00,
2013-09-13 01:10:00,67.6,47.8,29.35,WSW,242,0.0,0.0,49,0.00,,---,0.00,VWS V13.01,2013-09-13 05:10:00,
2013-09-13 01:15:00,67.6,47.8,29.32,WSW,242,0.0,0.0,49,0.00,,---,0.00,VWS V13.01,2013-09-13 05:15:00,
2013-09-13 01:20:00,67.6,47.8,29.32,WSW,242,0.0,0.0,49,0.00,,---,0.00,VWS V13.01,2013-09-13 05:20:00,
2013-09-13 01:25:00,67.6,47.8,29.32,WSW,242,0.0,0.0,49,0.00,,---,0.00,VWS V13.01,2013-09-13 05:25:00,
2013-09-13 01:30:00,67.6,48.4,29.32,WSW,242,0.0,0.0,50,0.00,,---,0.00,VWS V13.01,2013-09-13 05:30:00,
2013-09-13 01:35:00,67.6,48.4,29.32,WSW,242,0.0,0.0,50,0.00,,---,0.00,VWS V13.01,2013-09-13 05:35:00,
2013-09-13 01:40:00,67.5,48.2,29.32,WSW,242,0.0,0.0,50,0.00,,---,0.00,VWS V13.01,2013-09-13 05:40:00,
2013-09-13 01:45:00,67.5,48.2,29.32,WSW,242,0.0,0.0,50,0.00,,---,0.00,VWS V13.01,2013-09-13 05:45:00,
2013-09-13 01:51:00,67.5,48.2,29.32,WSW,242,0.0,0.0,50,0.00,,---,0.00,VWS V13.01,2013-09-13 05:51:00,
2013-09-13 01:56:00,67.3,47.5,29.32,WSW,242,0.0,0.0,49,0.00,,---,0.00,VWS V13.01,2013-09-13 05:56:00,
2013-09-13 02:01:00,67.5,48.2,29.32,WSW,242,0.0,0.0,50,0.00,,---,0.00,VWS V13.01,2013-09-13 06:01:00,
2013-09-13 02:06:00,67.5,48.2,29.32,WSW,242,0.0,0.0,50,0.00,,---,0.00,VWS V13.01,2013-09-13 06:06:00,
2013-09-13 02:11:00,67.3,48.0,29.32,WSW,242,0.0,0.0,50,0.00,,---,0.00,VWS V13.01,2013-09-13 06:11:00,
2013-09-13 02:16:00,67.3,48.0,29.29,WSW,242,0.0,0.0,50,0.00,,---,0.00,VWS V13.01,2013-09-13 06:16:00,
2013-09-13 02:21:00,67.3,48.0,29.29,WSW,242,0.0,0.0,50,0.00,,---,0.00,VWS V13.01,2013-09-13 06:21:00,
2013-09-13 02:26:00,67.3,48.0,29.29,WSW,242,0.0,0.0,50,0.00,,---,0.00,VWS V13.01,2013-09-13 06:26:00,
2013-09-13 02:32:00,67.1,47.9,29.29,WSW,242,0.0,0.0,50,0.00,,---,0.00,VWS V13.01,2013-09-13 06:32:00,
2013-09-13 02:37:00,67.1,47.9,29.29,WSW,242,0.0,0.0,50,0.00,,---,0.00,VWS V13.01,2013-09-13 06:37:00,
2013-09-13 02:42:00,67.1,47.9,29.29,WSW,242,0.0,0.0,50,0.00,,---,0.00,VWS V13.01,2013-09-13 06:42:00,
2013-09-13 02:47:00,67.1,48.4,29.29,WSW,242,0.0,0.0,51,0.00,,---,0.00,VWS V13.01,2013-09-13 06:47:00,
2013-09-13 02:52:00,67.1,48.4,29.29,WSW,242,0.0,0.0,51,0.00,,---,0.00,VWS V13.01,2013-09-13 06:52:00,
2013-09-13 02:57:00,67.1,48.4,29.29,WSW,242,0.0,0.0,51,0.00,,---,0.00,VWS V13.01,2013-09-13 06:57:00,
2013-09-13 03:02:00,67.1,48.4,29.29,WSW,242,0.0,0.0,51,0.00,,---,0.00,VWS V13.01,2013-09-13 07:02:00,
2013-09-13 03:07:00,67.1,48.9,29.29,WSW,242,0.0,0.0,52,0.00,,---,0.00,VWS V13.01,2013-09-13 07:07:00,
2013-09-13 03:12:00,67.1,48.9,29.29,WSW,242,0.0,0.0,52,0.00,,---,0.00,VWS V13.01,2013-09-13 07:12:00,
2013-09-13 03:17:00,67.1,48.9,29.29,WSW,242,0.0,0.0,52,0.00,,---,0.00,VWS V13.01,2013-09-13 07:17:00,
2013-09-13 03:22:00,67.1,48.9,29.29,WSW,242,0.0,0.0,52,0.00,,---,0.00,VWS V13.01,2013-09-13 07:22:00,
2013-09-13 03:27:00,67.1,48.9,29.29,WSW,242,0.0,0.0,52,0.00,,---,0.00,VWS V13.01,2013-09-13 07:27:00,
2013-09-13 03:33:00,67.1,49.4,29.29,WSW,242,0.0,0.0,53,0.00,,---,0.00,VWS V13.01,2013-09-13 07:33:00,
2013-09-13 03:38:00,67.1,49.4,29.29,WSW,242,0.0,0.0,53,0.00,,---,0.00,VWS V13.01,2013-09-13 07:38:00,
2013-09-13 03:43:00,67.1,49.4,29.29,WSW,242,0.0,0.0,53,0.00,,---,0.00,VWS V13.01,2013-09-13 07:43:00,
2013-09-13 03:48:00,67.1,49.4,29.29,WSW,242,0.0,0.0,53,0.00,,---,0.00,VWS V13.01,2013-09-13 07:48:00,
2013-09-13 03:53:00,67.1,49.4,29.29,WSW,242,0.0,0.0,53,0.00,,---,0.00,VWS V13.01,2013-09-13 07:53:00,
2013-09-13 03:58:00,67.1,49.9,29.29,WSW,242,0.0,0.0,54,0.00,,---,0.00,VWS V13.01,2013-09-13 07:58:00,
2013-09-13 04:03:00,67.1,49.9,29.29,WSW,242,0.0,0.0,54,0.00,,---,0.00,VWS V13.01,2013-09-13 08:03:00,
2013-09-13 04:08:00,67.1,49.9,29.29,WSW,242,0.0,0.0,54,0.00,,---,0.00,VWS V13.01,2013-09-13 08:08:00,
2013-09-13 04:13:00,67.1,49.9,29.29,WSW,242,0.0,0.0,54,0.00,,---,0.00,VWS V13.01,2013-09-13 08:13:00,
2013-09-13 04:18:00,67.1,49.9,29.29,WSW,242,0.0,0.0,54,0.00,,---,0.00,VWS V13.01,2013-09-13 08:18:00,
2013-09-13 04:23:00,67.1,50.4,29.29,WSW,242,0.0,0.0,55,0.00,,---,0.00,VWS V13.01,2013-09-13 08:23:00,
2013-09-13 04:28:00,67.3,50.6,29.29,WSW,242,0.0,0.0,55,0.00,,---,0.00,VWS V13.01,2013-09-13 08:28:00,
2013-09-13 04:34:00,67.1,50.4,29.29,WSW,242,0.0,0.0,55,0.00,,---,0.00,VWS V13.01,2013-09-13 08:34:00,
2013-09-13 04:39:00,67.1,50.4,29.29,WSW,242,0.0,0.0,55,0.00,,---,0.00,VWS V13.01,2013-09-13 08:39:00,
2013-09-13 04:44:00,67.1,50.4,29.29,WSW,243,0.0,0.0,55,0.00,,---,0.00,VWS V13.01,2013-09-13 08:44:00,
2013-09-13 04:49:00,67.1,50.4,29.29,WSW,243,0.0,0.0,55,0.00,,---,0.00,VWS V13.01,2013-09-13 08:49:00,
2013-09-13 04:54:00,67.1,50.4,29.29,WSW,243,0.0,0.0,55,0.00,,---,0.00,VWS V13.01,2013-09-13 08:54:00,
2013-09-13 04:59:00,67.1,50.4,29.29,WSW,243,0.0,0.0,55,0.00,,---,0.00,VWS V13.01,2013-09-13 08:59:00,
2013-09-13 05:04:00,67.1,50.9,29.29,WSW,243,0.0,0.0,56,0.00,,---,0.00,VWS V13.01,2013-09-13 09:04:00,
2013-09-13 05:09:00,66.9,50.7,29.29,WSW,243,0.0,0.0,56,0.00,,---,0.00,VWS V13.01,2013-09-13 09:09:00,
2013-09-13 05:14:00,66.9,50.7,29.29,WSW,243,0.0,0.0,56,0.00,,---,0.00,VWS V13.01,2013-09-13 09:14:00,
2013-09-13 05:19:00,66.9,50.7,29.29,WSW,243,0.0,0.0,56,0.00,,---,0.00,VWS V13.01,2013-09-13 09:19:00,
2013-09-13 05:24:00,66.9,50.7,29.29,WSW,243,0.0,0.0,56,0.00,,---,0.00,VWS V13.01,2013-09-13 09:24:00,
2013-09-13 05:29:00,66.9,50.7,29.29,WSW,243,0.0,0.0,56,0.00,,---,0.00,VWS V13.01,2013-09-13 09:29:00,
2013-09-13 05:35:00,66.9,50.7,29.29,WSW,243,0.0,0.0,56,0.00,,---,0.00,VWS V13.01,2013-09-13 09:35:00,
2013-09-13 05:40:00,66.7,50.6,29.29,WSW,243,0.0,0.0,56,0.00,,---,0.00,VWS V13.01,2013-09-13 09:40:00,
2013-09-13 05:45:00,66.7,50.6,29.29,WSW,243,0.0,0.0,56,0.00,,---,0.00,VWS V13.01,2013-09-13 09:45:00,
2013-09-13 05:50:00,66.7,50.6,29.29,WSW,243,0.0,0.0,56,0.00,,---,0.00,VWS V13.01,2013-09-13 09:50:00,
2013-09-13 05:55:00,66.7,50.6,29.29,WSW,243,0.0,0.0,56,0.00,,---,0.00,VWS V13.01,2013-09-13 09:55:00,
2013-09-13 06:00:00,66.7,50.6,29.29,WSW,243,0.0,0.0,56,0.00,,---,0.00,VWS V13.01,2013-09-13 10:00:00,
2013-09-13 06:05:00,66.7,50.6,29.29,WSW,243,0.0,0.0,56,0.00,,---,0.00,VWS V13.01,2013-09-13 10:05:00,
2013-09-13 06:10:00,66.7,50.6,29.29,WSW,243,0.0,0.0,56,0.00,,---,0.00,VWS V13.01,2013-09-13 10:10:00,
2013-09-13 06:15:00,66.6,50.4,29.29,WSW,243,0.0,0.0,56,0.00,,---,0.00,VWS V13.01,2013-09-13 10:15:00,
2013-09-13 06:20:00,66.6,50.4,29.29,WSW,243,0.0,0.0,56,0.00,,---,0.00,VWS V13.01,2013-09-13 10:20:00,
2013-09-13 06:25:00,66.4,50.2,29.29,WSW,243,0.0,0.0,56,0.00,,---,0.00,VWS V13.01,2013-09-13 10:25:00,
2013-09-13 06:30:00,66.2,50.1,29.29,WSW,243,0.0,0.0,56,0.00,,---,0.00,VWS V13.01,2013-09-13 10:30:00,
2013-09-13 06:36:00,66.2,50.1,29.29,WSW,243,0.0,0.0,56,0.00,,---,0.00,VWS V13.01,2013-09-13 10:36:00,
2013-09-13 06:41:00,66.0,49.9,29.29,WSW,243,0.0,0.0,56,0.00,,---,0.00,VWS V13.01,2013-09-13 10:41:00,
2013-09-13 06:46:00,66.0,49.9,29.32,WSW,243,0.0,0.0,56,0.00,,---,0.00,VWS V13.01,2013-09-13 10:46:00,
2013-09-13 06:51:00,66.0,49.9,29.32,WSW,243,0.0,0.0,56,0.00,,---,0.00,VWS V13.01,2013-09-13 10:51:00,
2013-09-13 06:56:00,66.0,49.9,29.32,WSW,243,0.0,0.0,56,0.00,,---,0.00,VWS V13.01,2013-09-13 10:56:00,
2013-09-13 07:01:00,66.0,49.9,29.32,WSW,243,0.0,0.0,56,0.00,,---,0.00,VWS V13.01,2013-09-13 11:01:00,
2013-09-13 07:06:00,66.0,50.4,29.32,WSW,243,0.0,0.0,57,0.00,,---,0.00,VWS V13.01,2013-09-13 11:06:00,
2013-09-13 07:11:00,66.2,50.1,29.32,WSW,243,0.0,0.0,56,0.00,,---,0.00,VWS V13.01,2013-09-13 11:11:00,
2013-09-13 07:16:00,66.2,50.1,29.32,WSW,243,0.0,0.0,56,0.00,,---,0.00,VWS V13.01,2013-09-13 11:16:00,
2013-09-13 07:21:00,66.2,50.1,29.32,WSW,243,0.0,0.0,56,0.00,,---,0.00,VWS V13.01,2013-09-13 11:21:00,
2013-09-13 07:26:00,66.2,50.5,29.32,WSW,243,0.0,0.0,57,0.00,,---,0.00,VWS V13.01,2013-09-13 11:26:00,
2013-09-13 07:32:00,66.2,50.5,29.32,WSW,243,0.0,0.0,57,0.00,,---,0.00,VWS V13.01,2013-09-13 11:32:00,
2013-09-13 07:37:00,66.2,50.5,29.32,WSW,243,0.0,0.0,57,0.00,,---,0.00,VWS V13.01,2013-09-13 11:37:00,
2013-09-13 07:42:00,66.2,50.5,29.32,WSW,243,0.0,0.0,57,0.00,,---,0.00,VWS V13.01,2013-09-13 11:42:00,
2013-09-13 07:47:00,66.2,50.5,29.32,SSW,202,0.0,0.0,57,0.00,,---,0.00,VWS V13.01,2013-09-13 11:47:00,
2013-09-13 07:52:00,66.2,50.5,29.32,SSW,202,0.0,0.0,57,0.00,,---,0.00,VWS V13.01,2013-09-13 11:52:00,
2013-09-13 07:57:00,66.0,50.4,29.32,SSW,202,0.0,0.0,57,0.00,,---,0.00,VWS V13.01,2013-09-13 11:57:00,
2013-09-13 08:02:00,66.2,50.5,29.32,SSW,202,0.0,0.0,57,0.00,,---,0.00,VWS V13.01,2013-09-13 12:02:00,
2013-09-13 08:07:00,66.2,50.5,29.32,SSW,202,0.0,0.0,57,0.00,,---,0.00,VWS V13.01,2013-09-13 12:07:00,
2013-09-13 08:12:00,66.4,51.2,29.32,SSW,202,0.0,0.0,58,0.00,,---,0.00,VWS V13.01,2013-09-13 12:12:00,
2013-09-13 08:17:00,66.6,51.3,29.32,SSW,203,0.0,0.0,58,0.00,,---,0.00,VWS V13.01,2013-09-13 12:17:00,
2013-09-13 08:22:00,66.7,51.5,29.32,SSW,203,0.0,0.0,58,0.00,,---,0.00,VWS V13.01,2013-09-13 12:22:00,
2013-09-13 08:27:00,66.9,51.7,29.32,SSW,204,0.0,0.0,58,0.00,,---,0.00,VWS V13.01,2013-09-13 12:27:00,
2013-09-13 08:33:00,67.1,53.2,29.32,SSW,204,0.0,0.0,61,0.00,,---,0.00,VWS V13.01,2013-09-13 12:33:00,
2013-09-13 08:38:00,67.1,53.2,29.32,SSW,203,0.0,0.0,61,0.00,,---,0.00,VWS V13.01,2013-09-13 12:38:00,
2013-09-13 08:43:00,67.3,53.4,29.32,SSW,203,0.0,0.0,61,0.00,,---,0.00,VWS V13.01,2013-09-13 12:43:00,
2013-09-13 08:48:00,67.6,53.7,29.32,SSW,204,0.0,0.0,61,0.00,,---,0.00,VWS V13.01,2013-09-13 12:48:00,
2013-09-13 08:53:00,67.8,53.9,29.32,SSW,204,0.0,0.0,61,0.00,,---,0.00,VWS V13.01,2013-09-13 12:53:00,
2013-09-13 08:58:00,68.0,53.6,29.32,West,276,0.0,0.0,60,0.00,,---,0.00,VWS V13.01,2013-09-13 12:58:00,
2013-09-13 09:03:00,67.8,53.4,29.32,WNW,301,0.0,0.0,60,0.00,,---,0.00,VWS V13.01,2013-09-13 13:03:00,
2013-09-13 09:08:00,68.0,53.2,29.32,NW,307,0.0,0.0,59,0.00,,---,0.00,VWS V13.01,2013-09-13 13:08:00,
2013-09-13 09:13:00,68.0,53.2,29.32,WNW,292,0.0,0.0,59,0.00,,---,0.00,VWS V13.01,2013-09-13 13:13:00,
2013-09-13 09:18:00,68.2,53.3,29.32,WNW,292,0.0,0.0,59,0.00,,---,0.00,VWS V13.01,2013-09-13 13:18:00,
2013-09-13 09:23:00,68.0,53.2,29.32,WNW,292,0.0,0.0,59,0.00,,---,0.00,VWS V13.01,2013-09-13 13:23:00,
2013-09-13 09:28:00,68.2,53.3,29.32,WNW,292,0.0,0.0,59,0.00,,---,0.00,VWS V13.01,2013-09-13 13:28:00,
2013-09-13 09:34:00,68.2,53.3,29.32,WNW,293,0.0,0.0,59,0.00,,---,0.00,VWS V13.01,2013-09-13 13:34:00,
2013-09-13 09:39:00,68.0,53.2,29.32,WNW,293,0.0,0.0,59,0.00,,---,0.00,VWS V13.01,2013-09-13 13:39:00,
2013-09-13 09:44:00,68.0,53.2,29.32,WNW,293,0.0,0.0,59,0.00,,---,0.00,VWS V13.01,2013-09-13 13:44:00,
2013-09-13 09:49:00,68.0,52.7,29.32,WNW,293,0.0,0.0,58,0.00,,---,0.00,VWS V13.01,2013-09-13 13:49:00,
2013-09-13 09:54:00,68.4,53.0,29.32,WNW,293,0.0,0.0,58,0.00,,---,0.00,VWS V13.01,2013-09-13 13:54:00,
2013-09-13 09:59:00,68.7,53.8,29.29,WNW,293,0.0,0.0,59,0.00,,---,0.00,VWS V13.01,2013-09-13 13:59:00,
2013-09-13 10:04:00,68.9,54.0,29.29,WNW,303,0.0,0.0,59,0.00,,---,0.00,VWS V13.01,2013-09-13 14:04:00,
2013-09-13 10:09:00,69.1,54.2,29.29,NNW,340,0.0,0.0,59,0.00,,---,0.00,VWS V13.01,2013-09-13 14:09:00,
2013-09-13 10:14:00,69.1,54.2,29.29,NNW,335,0.0,0.0,59,0.00,,---,0.00,VWS V13.01,2013-09-13 14:14:00,
2013-09-13 10:19:00,69.3,53.9,29.29,NNW,335,0.0,0.0,58,0.00,,---,0.00,VWS V13.01,2013-09-13 14:19:00,
2013-09-13 10:24:00,69.3,53.9,29.29,WNW,289,0.0,0.0,58,0.00,,---,0.00,VWS V13.01,2013-09-13 14:24:00,
2013-09-13 10:29:00,69.1,53.2,29.29,WNW,289,0.0,0.0,57,0.00,,---,0.00,VWS V13.01,2013-09-13 14:29:00,
2013-09-13 10:35:00,68.9,51.1,29.29,WNW,289,0.0,0.0,53,0.00,,---,0.00,VWS V13.01,2013-09-13 14:35:00,
2013-09-13 10:40:00,69.3,49.3,29.29,WNW,284,0.0,0.0,49,0.00,,---,0.00,VWS V13.01,2013-09-13 14:40:00,
2013-09-13 10:45:00,69.8,48.1,29.29,NW,308,0.0,0.0,46,0.00,,---,0.00,VWS V13.01,2013-09-13 14:45:00,
2013-09-13 10:50:00,70.3,47.4,29.29,NW,306,0.0,0.0,44,0.00,,---,0.00,VWS V13.01,2013-09-13 14:50:00,
2013-09-13 10:55:00,70.5,47.0,29.29,NW,306,0.0,0.0,43,0.00,,---,0.00,VWS V13.01,2013-09-13 14:55:00,
2013-09-13 11:00:00,70.3,44.9,29.29,WNW,296,0.0,0.0,40,0.00,,---,0.00,VWS V13.01,2013-09-13 15:00:00,
2013-09-13 11:05:00,70.5,43.0,29.29,WNW,298,0.0,0.0,37,0.00,,---,0.00,VWS V13.01,2013-09-13 15:05:00,
2013-09-13 11:10:00,70.7,42.5,29.29,WNW,298,0.0,0.0,36,0.00,,---,0.00,VWS V13.01,2013-09-13 15:10:00,
2013-09-13 11:15:00,70.7,41.7,29.29,WNW,299,0.0,0.0,35,0.00,,---,0.00,VWS V13.01,2013-09-13 15:15:00,
2013-09-13 11:20:00,71.1,41.3,29.29,NNE,18,0.0,0.0,34,0.00,,---,0.00,VWS V13.01,2013-09-13 15:20:00,
2013-09-13 11:25:00,71.1,40.5,29.29,WNW,299,0.0,0.0,33,0.00,,---,0.00,VWS V13.01,2013-09-13 15:25:00,
2013-09-13 11:31:00,71.1,39.7,29.32,NW,315,0.0,0.0,32,0.00,,---,0.00,VWS V13.01,2013-09-13 15:31:00,
2013-09-13 11:36:00,70.9,39.6,29.32,NW,315,0.0,0.0,32,0.00,,---,0.00,VWS V13.01,2013-09-13 15:36:00,
2013-09-13 11:41:00,70.7,39.4,29.32,WNW,300,0.0,0.0,32,0.00,,---,0.00,VWS V13.01,2013-09-13 15:41:00,
2013-09-13 11:46:00,70.5,36.8,29.32,NW,314,0.0,0.0,29,0.00,,---,0.00,VWS V13.01,2013-09-13 15:46:00,
2013-09-13 11:51:00,70.5,36.8,29.32,NW,314,0.0,0.0,29,0.00,,---,0.00,VWS V13.01,2013-09-13 15:51:00,
2013-09-13 11:56:00,70.3,38.3,29.32,WNW,285,0.0,0.0,31,0.00,,---,0.00,VWS V13.01,2013-09-13 15:56:00,
2013-09-13 12:01:00,70.2,37.3,29.29,WNW,285,0.0,0.0,30,0.00,,---,0.00,VWS V13.01,2013-09-13 16:01:00,
2013-09-13 12:06:00,70.2,37.3,29.29,WNW,285,0.0,0.0,30,0.00,,---,0.00,VWS V13.01,2013-09-13 16:06:00,
2013-09-13 12:11:00,70.2,39.0,29.29,SW,235,0.0,0.0,32,0.00,,---,0.00,VWS V13.01,2013-09-13 16:11:00,
2013-09-13 12:16:00,70.0,34.5,29.29,NW,315,0.0,0.0,27,0.00,,---,0.00,VWS V13.01,2013-09-13 16:16:00,
2013-09-13 12:21:00,69.8,32.4,29.29,WNW,298,0.0,0.0,25,0.00,,---,0.00,VWS V13.01,2013-09-13 16:21:00,
2013-09-13 12:26:00,69.6,35.1,29.29,WNW,292,0.0,0.0,28,0.00,,---,0.00,VWS V13.01,2013-09-13 16:26:00,
2013-09-13 12:32:00,69.3,34.8,29.32,West,278,0.0,0.0,28,0.00,,---,0.00,VWS V13.01,2013-09-13 16:32:00,
2013-09-13 12:37:00,68.9,32.6,29.32,WSW,251,0.0,0.0,26,0.00,,---,0.00,VWS V13.01,2013-09-13 16:37:00,
2013-09-13 12:42:00,68.7,32.5,29.32,WNW,291,0.0,0.0,26,0.00,,---,0.00,VWS V13.01,2013-09-13 16:42:00,
2013-09-13 12:47:00,68.7,33.4,29.29,WNW,293,0.0,0.0,27,0.00,,---,0.00,VWS V13.01,2013-09-13 16:47:00,
2013-09-13 12:52:00,68.9,32.6,29.29,West,281,0.0,0.0,26,0.00,,---,0.00,VWS V13.01,2013-09-13 16:52:00,
2013-09-13 12:57:00,69.1,34.6,29.29,NNW,338,0.0,0.0,28,0.00,,---,0.00,VWS V13.01,2013-09-13 16:57:00,
2013-09-13 13:02:00,69.1,35.5,29.32,North,10,0.0,0.0,29,0.00,,---,0.00,VWS V13.01,2013-09-13 17:02:00,
2013-09-13 13:07:00,69.1,36.4,29.32,NNW,337,0.0,0.0,30,0.00,,---,0.00,VWS V13.01,2013-09-13 17:07:00,
2013-09-13 13:12:00,69.3,37.4,29.32,NNW,332,0.0,0.0,31,0.00,,---,0.00,VWS V13.01,2013-09-13 17:12:00,
2013-09-13 13:17:00,69.3,36.5,29.29,NW,325,0.0,0.0,30,0.00,,---,0.00,VWS V13.01,2013-09-13 17:17:00,
2013-09-13 13:22:00,69.3,32.9,29.29,WNW,290,0.0,0.0,26,0.00,,---,0.00,VWS V13.01,2013-09-13 17:22:00,
2013-09-13 13:27:00,69.3,32.9,29.29,WNW,290,0.0,0.0,26,0.00,,---,0.00,VWS V13.01,2013-09-13 17:27:00,
2013-09-13 13:33:00,69.1,33.7,29.29,WNW,290,0.0,0.0,27,0.00,,---,0.00,VWS V13.01,2013-09-13 17:33:00,
2013-09-13 13:38:00,68.7,33.4,29.29,WNW,290,0.0,0.0,27,0.00,,---,0.00,VWS V13.01,2013-09-13 17:38:00,
2013-09-13 13:43:00,68.5,33.3,29.29,WNW,290,0.0,0.0,27,0.00,,---,0.00,VWS V13.01,2013-09-13 17:43:00,
2013-09-13 13:48:00,68.5,35.0,29.32,WNW,290,0.0,0.0,29,0.00,,---,0.00,VWS V13.01,2013-09-13 17:48:00,
2013-09-13 13:53:00,68.5,35.9,29.32,WNW,290,0.0,0.0,30,0.00,,---,0.00,VWS V13.01,2013-09-13 17:53:00,
2013-09-13 13:58:00,68.7,36.1,29.32,WNW,290,0.0,0.0,30,0.00,,---,0.00,VWS V13.01,2013-09-13 17:58:00,
2013-09-13 14:03:00,69.1,34.6,29.29,West,265,0.0,0.0,28,0.00,,---,0.00,VWS V13.01,2013-09-13 18:03:00,
2013-09-13 14:08:00,69.3,35.7,29.29,WNW,294,0.0,0.0,29,0.00,,---,0.00,VWS V13.01,2013-09-13 18:08:00,
2013-09-13 14:13:00,69.4,35.0,29.29,WNW,294,0.0,0.0,28,0.00,,---,0.00,VWS V13.01,2013-09-13 18:13:00,
2013-09-13 14:18:00,69.8,34.3,29.29,WNW,293,0.0,0.0,27,0.00,,---,0.00,VWS V13.01,2013-09-13 18:18:00,
2013-09-13 14:23:00,70.0,33.5,29.29,WNW,293,0.0,0.0,26,0.00,,---,0.00,VWS V13.01,2013-09-13 18:23:00,
2013-09-13 14:28:00,70.0,32.6,29.29,WNW,300,0.0,0.0,25,0.00,,---,0.00,VWS V13.01,2013-09-13 18:28:00,
2013-09-13 14:34:00,70.0,31.6,29.29,West,271,0.0,0.0,24,0.00,,---,0.00,VWS V13.01,2013-09-13 18:34:00,
2013-09-13 14:39:00,70.7,31.1,29.29,West,272,0.0,0.0,23,0.00,,---,0.00,VWS V13.01,2013-09-13 18:39:00,
2013-09-13 14:44:00,71.2,30.5,29.29,WNW,288,0.0,0.0,22,0.00,,---,0.00,VWS V13.01,2013-09-13 18:44:00,
2013-09-13 14:49:00,71.4,30.6,29.29,NW,305,0.0,0.0,22,0.00,,---,0.00,VWS V13.01,2013-09-13 18:49:00,
2013-09-13 14:54:00,71.8,29.8,29.29,WNW,298,0.0,0.0,21,0.00,,---,0.00,VWS V13.01,2013-09-13 18:54:00,
2013-09-13 14:59:00,71.8,29.8,29.29,NNW,332,0.0,0.0,21,0.00,,---,0.00,VWS V13.01,2013-09-13 18:59:00,
2013-09-13 15:04:00,71.6,29.6,29.29,West,274,0.0,0.0,21,0.00,,---,0.00,VWS V13.01,2013-09-13 19:04:00,
2013-09-13 15:09:00,71.6,27.2,29.29,NNW,346,0.0,0.0,19,0.00,,---,0.00,VWS V13.01,2013-09-13 19:09:00,
2013-09-13 15:14:00,72.0,23.4,29.29,WNW,300,0.0,0.0,16,0.16,,---,0.16,VWS V13.01,2013-09-13 19:14:00,
2013-09-13 15:19:00,72.0,23.4,29.29,West,262,0.0,0.0,16,0.16,,---,0.16,VWS V13.01,2013-09-13 19:19:00,
2013-09-13 15:24:00,71.8,27.3,29.29,WNW,294,0.0,0.0,19,0.16,,---,0.16,VWS V13.01,2013-09-13 19:24:00,
2013-09-13 15:29:00,71.4,24.4,29.29,WNW,292,0.0,0.0,17,0.16,,---,0.16,VWS V13.01,2013-09-13 19:29:00,
2013-09-13 15:34:00,71.6,27.2,29.29,WNW,292,0.0,0.0,19,0.16,,---,0.16,VWS V13.01,2013-09-13 19:34:00,
2013-09-13 15:40:00,71.8,27.3,29.29,NW,321,0.0,0.0,19,0.16,,---,0.16,VWS V13.01,2013-09-13 19:40:00,
2013-09-13 15:45:00,71.6,27.2,29.29,NNW,332,0.0,0.0,19,0.16,,---,0.16,VWS V13.01,2013-09-13 19:45:00,
2013-09-13 15:50:00,71.2,26.9,29.29,NNW,332,0.0,0.0,19,0.16,,---,0.16,VWS V13.01,2013-09-13 19:50:00,
2013-09-13 15:55:00,70.9,26.6,29.29,NNW,332,0.0,0.0,19,0.16,,---,0.16,VWS V13.01,2013-09-13 19:55:00,
2013-09-13 16:00:00,70.5,26.3,29.29,North,353,0.0,0.0,19,0.16,,---,0.16,VWS V13.01,2013-09-13 20:00:00,
2013-09-13 16:05:00,70.2,26.0,29.29,NW,324,0.0,0.0,19,0.16,,---,0.16,VWS V13.01,2013-09-13 20:05:00,
2013-09-13 16:10:00,69.6,26.8,29.29,NNW,341,0.0,0.0,20,0.16,,---,0.16,VWS V13.01,2013-09-13 20:10:00,
2013-09-13 16:15:00,69.3,26.5,29.29,NW,305,0.0,0.0,20,0.16,,---,0.16,VWS V13.01,2013-09-13 20:15:00,
2013-09-13 16:20:00,69.1,22.5,29.29,WNW,292,0.0,0.0,17,0.16,,---,0.16,VWS V13.01,2013-09-13 20:20:00,
2013-09-13 16:27:00,68.5,25.9,29.29,WNW,302,0.0,2.7,20,0.00,,---,0.16,VWS V13.01,2013-09-13 20:27:00,
2013-09-13 16:32:00,68.5,28.2,29.32,NNW,341,0.0,2.7,22,0.00,,---,0.16,VWS V13.01,2013-09-13 20:32:00,
2013-09-13 16:37:00,68.7,28.4,29.32,WNW,296,0.0,2.7,22,0.00,,---,0.16,VWS V13.01,2013-09-13 20:37:00,
2013-09-13 16:42:00,68.5,28.2,29.32,NNW,327,0.0,2.7,22,0.00,,---,0.16,VWS V13.01,2013-09-13 20:42:00,
2013-09-13 16:47:00,68.2,25.6,29.32,NNW,334,0.0,0.0,20,0.00,,---,0.16,VWS V13.01,2013-09-13 20:47:00,
2013-09-13 16:52:00,67.8,27.6,29.32,North,349,0.0,0.0,22,0.00,,---,0.16,VWS V13.01,2013-09-13 20:52:00,
2013-09-13 16:57:00,67.5,25.0,29.32,West,266,0.0,0.0,20,0.00,,---,0.16,VWS V13.01,2013-09-13 20:57:00,
2013-09-13 17:02:00,67.3,27.2,29.32,NNW,330,0.0,0.0,22,0.00,,---,0.16,VWS V13.01,2013-09-13 21:02:00,
2013-09-13 17:07:00,67.3,27.2,29.32,WNW,293,0.0,0.0,22,0.00,,---,0.16,VWS V13.01,2013-09-13 21:07:00,
2013-09-13 17:12:00,67.3,24.9,29.32,NW,311,0.0,0.0,20,0.00,,---,0.16,VWS V13.01,2013-09-13 21:12:00,
2013-09-13 17:17:00,67.1,27.0,29.32,WNW,297,0.0,0.0,22,0.00,,---,0.16,VWS V13.01,2013-09-13 21:17:00,
2013-09-13 17:23:00,66.7,27.8,29.32,NW,306,0.0,0.0,23,0.00,,---,0.16,VWS V13.01,2013-09-13 21:23:00,
2013-09-13 17:28:00,66.6,27.6,29.32,WNW,303,0.0,0.0,23,0.00,,---,0.16,VWS V13.01,2013-09-13 21:28:00,
2013-09-13 17:33:00,66.4,27.5,29.32,NW,312,0.0,0.0,23,0.00,,---,0.16,VWS V13.01,2013-09-13 21:33:00,
2013-09-13 17:38:00,66.2,27.3,29.32,NNW,330,0.0,0.0,23,0.00,,---,0.16,VWS V13.01,2013-09-13 21:38:00,
2013-09-13 17:43:00,66.2,27.3,29.32,NW,308,0.0,0.0,23,0.00,,---,0.16,VWS V13.01,2013-09-13 21:43:00,
2013-09-13 17:48:00,66.2,24.0,29.35,NW,312,0.0,0.0,20,0.00,,---,0.16,VWS V13.01,2013-09-13 21:48:00,
2013-09-13 17:53:00,66.0,23.8,29.35,WNW,302,0.0,0.0,20,0.00,,---,0.16,VWS V13.01,2013-09-13 21:53:00,
2013-09-13 17:58:00,66.0,21.3,29.35,North,353,0.0,0.0,18,0.00,,---,0.16,VWS V13.01,2013-09-13 21:58:00,
2013-09-13 18:03:00,66.0,23.8,29.35,NW,325,0.0,0.0,20,0.00,,---,0.16,VWS V13.01,2013-09-13 22:03:00,
2013-09-13 18:08:00,66.0,21.3,29.35,North,357,0.0,0.0,18,0.00,,---,0.16,VWS V13.01,2013-09-13 22:08:00,
2013-09-13 18:13:00,65.8,21.2,29.35,NNW,344,0.0,0.0,18,0.00,,---,0.16,VWS V13.01,2013-09-13 22:13:00,
2013-09-13 18:18:00,65.8,21.2,29.35,North,357,0.0,0.0,18,0.00,,---,0.16,VWS V13.01,2013-09-13 22:18:00,
2013-09-13 18:24:00,65.5,23.4,29.35,NW,326,0.0,0.0,20,0.00,,---,0.16,VWS V13.01,2013-09-13 22:24:00,
2013-09-13 18:29:00,65.1,20.6,29.35,North,349,0.0,0.0,18,0.00,,---,0.16,VWS V13.01,2013-09-13 22:29:00,
2013-09-13 18:34:00,64.8,22.8,29.38,NW,324,0.0,0.0,20,0.00,,---,0.16,VWS V13.01,2013-09-13 22:34:00,
2013-09-13 18:39:00,64.6,22.6,29.38,NW,305,0.0,0.0,20,0.00,,---,0.16,VWS V13.01,2013-09-13 22:39:00,
2013-09-13 18:44:00,64.2,23.5,29.38,WNW,301,0.0,0.0,21,0.00,,---,0.16,VWS V13.01,2013-09-13 22:44:00,
2013-09-13 18:49:00,64.0,23.3,29.38,NW,311,0.0,0.0,21,0.00,,---,0.16,VWS V13.01,2013-09-13 22:49:00,
2013-09-13 18:54:00,63.9,25.4,29.38,NW,305,0.0,0.0,23,0.00,,---,0.16,VWS V13.01,2013-09-13 22:54:00,
2013-09-13 18:59:00,63.7,25.2,29.38,NW,305,0.0,0.0,23,0.00,,---,0.16,VWS V13.01,2013-09-13 22:59:00,
2013-09-13 19:04:00,63.5,25.1,29.38,West,263,0.0,0.0,23,0.00,,---,0.16,VWS V13.01,2013-09-13 23:04:00,
2013-09-13 19:09:00,63.1,25.8,29.38,WNW,294,0.0,0.0,24,0.00,,---,0.16,VWS V13.01,2013-09-13 23:09:00,
2013-09-13 19:14:00,63.1,25.8,29.38,NNW,333,0.0,0.0,24,0.00,,---,0.16,VWS V13.01,2013-09-13 23:14:00,
2013-09-13 19:20:00,63.0,25.6,29.38,NW,325,0.0,0.0,24,0.00,,---,0.16,VWS V13.01,2013-09-13 23:20:00,
2013-09-13 19:25:00,62.8,25.5,29.38,NW,324,0.0,0.0,24,0.00,,---,0.16,VWS V13.01,2013-09-13 23:25:00,
2013-09-13 19:30:00,62.6,25.3,29.41,NW,324,0.0,0.0,24,0.00,,---,0.16,VWS V13.01,2013-09-13 23:30:00,
2013-09-13 19:35:00,62.4,25.2,29.41,NW,324,0.0,0.0,24,0.00,,---,0.16,VWS V13.01,2013-09-13 23:35:00,
2013-09-13 19:40:00,62.2,25.0,29.41,NW,324,0.0,0.0,24,0.00,,---,0.16,VWS V13.01,2013-09-13 23:40:00,
2013-09-13 19:45:00,62.1,24.9,29.41,NW,324,0.0,0.0,24,0.00,,---,0.16,VWS V13.01,2013-09-13 23:45:00,
2013-09-13 19:50:00,61.9,25.7,29.41,NW,316,0.0,0.0,25,0.00,,---,0.16,VWS V13.01,2013-09-13 23:50:00,
2013-09-13 19:55:00,61.7,25.5,29.41,NW,317,0.0,0.0,25,0.00,,---,0.16,VWS V13.01,2013-09-13 23:55:00,
2013-09-13 20:00:00,61.7,25.5,29.41,NW,316,0.0,0.0,25,0.00,,---,0.16,VWS V13.01,2013-09-14 00:00:00,
2013-09-13 20:05:00,61.5,25.4,29.41,NW,306,0.0,0.0,25,0.00,,---,0.16,VWS V13.01,2013-09-14 00:05:00,
2013-09-13 20:10:00,61.3,25.2,29.41,NW,306,0.0,0.0,25,0.00,,---,0.16,VWS V13.01,2013-09-14 00:10:00,
2013-09-13 20:16:00,61.3,24.3,29.41,WNW,301,0.0,0.0,24,0.00,,---,0.16,VWS V13.01,2013-09-14 00:16:00,
2013-09-13 20:21:00,61.3,24.3,29.41,NNW,328,0.0,0.0,24,0.00,,---,0.16,VWS V13.01,2013-09-14 00:21:00,
2013-09-13 20:26:00,61.3,24.3,29.41,WNW,297,0.0,0.0,24,0.00,,---,0.16,VWS V13.01,2013-09-14 00:26:00,
2013-09-13 20:31:00,61.3,24.3,29.44,NW,305,0.0,0.0,24,0.00,,---,0.16,VWS V13.01,2013-09-14 00:31:00,
2013-09-13 20:36:00,61.2,20.9,29.44,WNW,301,0.0,0.0,21,0.00,,---,0.16,VWS V13.01,2013-09-14 00:36:00,
2013-09-13 20:41:00,61.0,20.8,29.44,WNW,296,0.0,2.7,21,0.00,,---,0.16,VWS V13.01,2013-09-14 00:41:00,
2013-09-13 20:46:00,61.0,20.8,29.44,NW,305,0.0,0.0,21,0.00,,---,0.16,VWS V13.01,2013-09-14 00:46:00,
2013-09-13 20:51:00,61.0,20.8,29.44,NW,314,0.0,0.0,21,0.00,,---,0.16,VWS V13.01,2013-09-14 00:51:00,
2013-09-13 20:56:00,60.6,21.6,29.44,NW,319,0.0,0.0,22,0.00,,---,0.16,VWS V13.01,2013-09-14 00:56:00,
2013-09-13 21:01:00,60.6,18.2,29.44,NNW,331,0.0,2.7,19,0.00,,---,0.16,VWS V13.01,2013-09-14 01:01:00,
2013-09-13 21:07:00,60.6,18.2,29.44,NW,310,0.0,0.0,19,0.00,,---,0.16,VWS V13.01,2013-09-14 01:07:00,
2013-09-13 21:12:00,60.4,21.4,29.44,NW,306,0.0,0.0,22,0.00,,---,0.16,VWS V13.01,2013-09-14 01:12:00,
2013-09-13 21:17:00,60.4,18.0,29.44,NNW,327,0.0,0.0,19,0.00,,---,0.16,VWS V13.01,2013-09-14 01:17:00,
2013-09-13 21:22:00,60.3,21.3,29.44,NNW,328,0.0,0.0,22,0.00,,---,0.16,VWS V13.01,2013-09-14 01:22:00,
2013-09-13 21:27:00,60.3,17.9,29.44,NNE,15,0.0,0.0,19,0.00,,---,0.16,VWS V13.01,2013-09-14 01:27:00,
2013-09-13 21:32:00,60.3,17.9,29.44,North,10,0.0,0.0,19,0.00,,---,0.16,VWS V13.01,2013-09-14 01:32:00,
2013-09-13 21:37:00,60.3,17.9,29.44,NW,306,0.0,0.0,19,0.00,,---,0.16,VWS V13.01,2013-09-14 01:37:00,
2013-09-13 21:42:00,60.3,17.9,29.44,NW,314,0.0,0.0,19,0.00,,---,0.16,VWS V13.01,2013-09-14 01:42:00,
2013-09-13 21:47:00,60.3,17.9,29.44,North,349,0.0,0.0,19,0.00,,---,0.16,VWS V13.01,2013-09-14 01:47:00,
2013-09-13 21:53:00,60.1,17.7,29.44,WNW,288,0.0,0.0,19,0.00,,---,0.16,VWS V13.01,2013-09-14 01:53:00,
2013-09-13 21:58:00,59.9,15.0,29.44,WNW,299,0.0,2.7,17,0.00,,---,0.16,VWS V13.01,2013-09-14 01:58:00,
2013-09-13 22:03:00,59.7,17.4,29.47,NW,307,0.0,0.0,19,0.00,,---,0.16,VWS V13.01,2013-09-14 02:03:00,
2013-09-13 22:08:00,59.5,17.3,29.47,NNW,334,0.0,0.0,19,0.00,,---,0.16,VWS V13.01,2013-09-14 02:08:00,
2013-09-13 22:13:00,59.4,14.6,29.47,NW,326,0.0,0.0,17,0.00,,---,0.16,VWS V13.01,2013-09-14 02:13:00,
2013-09-13 22:18:00,59.2,17.0,29.47,NW,312,0.0,0.0,19,0.00,,---,0.16,VWS V13.01,2013-09-14 02:18:00,
2013-09-13 22:23:00,59.0,16.8,29.47,WNW,300,0.0,0.0,19,0.00,,---,0.16,VWS V13.01,2013-09-14 02:23:00,
2013-09-13 22:28:00,58.8,16.7,29.47,NW,312,0.0,0.0,19,0.00,,---,0.16,VWS V13.01,2013-09-14 02:28:00,
2013-09-13 22:34:00,58.6,16.5,29.47,NNW,331,0.0,0.0,19,0.00,,---,0.16,VWS V13.01,2013-09-14 02:34:00,
2013-09-13 22:39:00,58.5,16.4,29.47,NNW,334,0.0,0.0,19,0.00,,---,0.16,VWS V13.01,2013-09-14 02:39:00,
2013-09-13 22:44:00,58.5,16.4,29.47,WSW,254,0.0,0.0,19,0.00,,---,0.16,VWS V13.01,2013-09-14 02:44:00,
2013-09-13 22:49:00,58.3,16.2,29.47,NW,306,0.0,0.0,19,0.00,,---,0.16,VWS V13.01,2013-09-14 02:49:00,
2013-09-13 22:54:00,58.1,16.1,29.47,NNW,330,0.0,0.0,19,0.00,,---,0.16,VWS V13.01,2013-09-14 02:54:00,
2013-09-13 22:59:00,58.1,16.1,29.47,WNW,299,0.0,0.0,19,0.00,,---,0.16,VWS V13.01,2013-09-14 02:59:00,
2013-09-13 23:04:00,57.9,15.9,29.47,NW,307,0.0,0.0,19,0.00,,---,0.16,VWS V13.01,2013-09-14 03:04:00,
2013-09-13 23:10:00,57.7,19.2,29.47,NW,320,0.0,0.0,22,0.00,,---,0.16,VWS V13.01,2013-09-14 03:10:00,
2013-09-13 23:15:00,57.6,15.6,29.47,NNW,344,0.0,0.0,19,0.00,,---,0.16,VWS V13.01,2013-09-14 03:15:00,
2013-09-13 23:20:00,57.4,15.5,29.47,NNW,332,0.0,0.0,19,0.00,,---,0.16,VWS V13.01,2013-09-14 03:20:00,
2013-09-13 23:25:00,57.2,15.3,29.47,North,357,0.0,0.0,19,0.00,,---,0.16,VWS V13.01,2013-09-14 03:25:00,
2013-09-13 23:30:00,57.2,18.7,29.47,WNW,294,0.0,0.0,22,0.00,,---,0.16,VWS V13.01,2013-09-14 03:30:00,
2013-09-13 23:35:00,57.2,18.7,29.47,NNW,332,0.0,0.0,22,0.00,,---,0.16,VWS V13.01,2013-09-14 03:35:00,
2013-09-13 23:40:00,57.0,18.6,29.47,NW,313,0.0,0.0,22,0.00,,---,0.16,VWS V13.01,2013-09-14 03:40:00,
2013-09-13 23:45:00,56.8,18.4,29.47,NNW,337,0.0,0.0,22,0.00,,---,0.16,VWS V13.01,2013-09-14 03:45:00,
2013-09-13 23:50:00,56.8,18.4,29.47,North,353,0.0,0.0,22,0.00,,---,0.16,VWS V13.01,2013-09-14 03:50:00,
2013-09-13 23:55:00,56.7,18.3,29.47,NNW,330,0.0,0.0,22,0.00,,---,0.16,VWS V13.01,2013-09-14 03:55:00,